GW7237 Weather Reports


time (UTC)temp
C
wind
direction
speed
KPH
gust
KPH
rain 1hr
cm
rain 24hr
cm
rain mn
cm
humidity
%
barometer
mb
20260508025515 13 277 0.0 4.8 0.00 0.00 0.00 42 1013.9
20260508025015 13 287 0.0 4.8 0.00 0.00 0.00 42 1013.8
20260508024512 13 300 0.0 1.6 0.00 0.00 0.00 41 1013.6
20260508024012 13 286 0.0 1.6 0.00 0.00 0.00 41 1013.6
20260508023511 13 297 0.0 1.6 0.00 0.00 0.00 41 1013.4
20260508023012 13 297 0.0 3.2 0.00 0.00 0.00 42 1013.3
20260508022511 13 297 0.0 3.2 0.00 0.00 0.00 40 1013.3
20260508022013 12 294 0.0 3.2 0.00 0.00 0.00 41 1013.4
20260508021512 12 260 0.0 0.0 0.00 0.00 0.00 47 1013.2
20260508020010 13 260 0.0 1.6 0.00 0.00 0.00 44 1012.9
20260508015508 13 260 0.0 1.6 0.00 0.00 0.00 43 1012.8
20260508015008 13 260 0.0 1.6 0.00 0.00 0.00 45 1012.7
20260508014508 13 260 0.0 1.6 0.00 0.00 0.00 44 1012.6
20260508013508 13 259 0.0 0.0 0.00 0.00 0.00 44 1012.5
20260508013008 14 259 0.0 0.0 0.00 0.00 0.00 45 1012.5
20260508012509 14 259 0.0 0.0 0.00 0.00 0.00 39 1012.3
20260508012009 15 259 0.0 0.0 0.00 0.00 0.00 38 1012.5
20260508011505 15 259 0.0 0.0 0.00 0.00 0.00 38 1012.5
20260508011004 16 259 0.0 0.0 0.00 0.00 0.00 37 1012.3
20260508010005 16 259 0.0 1.6 0.00 0.00 0.00 33 1012.2
20260508005504 16 259 0.0 1.6 0.00 0.00 0.00 34 1012.3
20260508005006 16 259 0.0 1.6 0.00 0.00 0.00 36 1012.3
20260508004507 16 259 0.0 1.6 0.00 0.00 0.00 33 1012.3
20260508004007 16 259 0.0 1.6 0.00 0.00 0.00 32 1012.3
20260508003006 16 259 0.0 1.6 0.00 0.00 0.00 29 1012.2
20260508002504 16 259 0.0 0.0 0.00 0.00 0.00 32 1012.1
20260508002005 16 259 0.0 1.6 0.00 0.00 0.00 30 1012.1
20260508001503 17 259 0.0 1.6 0.00 0.00 0.00 28 1012.1
20260508000959 17 259 0.0 1.6 0.00 0.00 0.00 27 1012.2
20260508000459 17 259 0.0 3.2 0.00 0.00 0.00 28 1012.3
20260507235959 17 250 0.0 3.2 0.00 0.00 0.00 29 1012.5
20260507235458 16 254 0.0 3.2 0.00 0.00 0.00 28 1012.3
20260507234457 17 259 1.6 6.4 0.00 0.00 0.00 28 1012.5
20260507233956 17 272 0.0 6.4 0.00 0.00 0.00 28 1012.3
20260507232956 17 267 1.6 14.5 0.00 0.03 0.00 27 1012.5
20260507232459 18 254 1.6 14.5 0.00 0.03 0.00 26 1012.5
20260507231959 18 277 1.6 11.3 0.00 0.03 0.00 27 1012.5
20260507230948 18 250 0.0 11.3 0.00 0.03 0.00 29 1012.3
20260507225935 18 296 0.0 4.8 0.00 0.05 0.00 28 1012.5
20260507225429 18 278 0.0 6.4 0.00 0.05 0.00 27 1012.5
20260507224923 18 291 0.0 6.4 0.00 0.05 0.00 30 1012.5
20260507224418 18 290 0.0 6.4 0.00 0.05 0.00 28 1012.5
20260507223912 18 338 1.6 11.3 0.00 0.08 0.00 31 1012.6
20260507222353 17 279 0.0 6.4 0.00 0.13 0.00 31 1012.8
20260507221851 17 268 0.0 3.2 0.00 0.15 0.00 29 1012.8
20260507221347 17 243 1.6 16.1 0.00 0.15 0.00 29 1012.9
20260507220847 17 256 1.6 16.1 0.00 0.18 0.00 28 1012.9
20260507220347 17 283 0.0 11.3 0.00 0.18 0.00 30 1013.2
20260507215847 17 261 0.0 11.3 0.00 0.20 0.00 30 1013.1
20260507214847 16 290 3.2 17.7 0.00 0.20 0.00 32 1013.2
20260507214345 16 279 3.2 17.7 0.00 0.23 0.00 33 1013.3
20260507213843 16 269 3.2 16.1 0.00 0.23 0.00 32 1013.3
20260507213344 16 248 1.6 12.9 0.00 0.25 0.00 33 1013.3
20260507212845 16 248 1.6 9.7 0.00 0.25 0.00 31 1013.4
20260507212343 16 242 0.0 3.2 0.00 0.25 0.00 33 1013.3
20260507211841 16 288 1.6 6.4 0.00 0.28 0.00 33 1013.4
20260507211342 16 291 1.6 12.9 0.00 0.28 0.00 32 1013.6
20260507210842 17 285 1.6 16.1 0.00 0.30 0.00 31 1013.6
20260507210342 17 237 1.6 16.1 0.00 0.30 0.00 32 1013.7
20260507205842 17 278 1.6 8.0 0.00 0.33 0.00 32 1013.7
20260507204830 17 243 1.6 14.5 0.00 0.36 0.00 30 1013.8
20260507204324 17 283 1.6 14.5 0.00 0.38 0.00 35 1013.8
20260507203818 17 262 1.6 14.5 0.00 0.38 0.00 32 1013.9
20260507203312 17 268 1.6 6.4 0.00 0.41 0.00 31 1014.0
20260507202806 17 199 0.0 6.4 0.00 0.41 0.00 33 1014.0
20260507202300 17 246 1.6 12.9 0.00 0.43 0.00 31 1014.0
20260507201754 17 242 1.6 12.9 0.00 0.46 0.00 31 1014.2
20260507201248 17 281 1.6 14.5 0.00 0.48 0.00 34 1014.3
20260507200742 17 252 1.6 14.5 0.00 0.51 0.00 32 1014.3
20260507200236 16 240 1.6 6.4 0.00 0.53 0.00 32 1014.2
20260507195730 16 271 1.6 6.4 0.00 0.58 0.00 31 1014.3
20260507195224 17 271 1.6 6.4 0.00 0.61 0.00 31 1014.3
20260507194718 16 271 1.6 11.3 0.00 0.64 0.00 32 1014.4
20260507194212 16 237 1.6 11.3 0.00 0.69 0.00 35 1014.4
20260507193706 16 274 1.6 9.7 0.00 0.71 0.00 33 1014.4
20260507193200 16 259 1.6 16.1 0.00 0.76 0.00 32 1014.4
20260507192654 16 284 1.6 16.1 0.00 0.81 0.00 32 1014.4
20260507192148 16 226 0.0 3.2 0.00 0.84 0.00 37 1014.4
20260507191642 16 223 1.6 11.3 0.00 0.86 0.00 36 1014.5
20260507191136 16 263 1.6 11.3 0.00 0.89 0.00 38 1014.6
20260507190630 16 229 1.6 12.9 0.00 0.91 0.00 35 1014.6
20260507190124 15 240 0.0 12.9 0.00 0.94 0.00 36 1014.8
20260507185112 15 213 0.0 6.4 0.00 0.97 0.00 37 1014.9
20260507184606 15 165 0.0 6.4 0.00 0.97 0.00 39 1014.9
20260507184100 15 170 0.0 3.2 0.00 0.99 0.00 37 1014.9
20260507182542 15 265 0.0 1.6 0.00 1.04 0.00 38 1015.1
20260507181529 14 236 0.0 4.8 0.00 1.07 0.00 43 1015.1
20260507180518 13 200 0.0 0.0 0.00 1.09 0.00 40 1015.3
20260507180012 13 188 0.0 0.0 0.00 1.12 0.00 40 1015.3
20260507175506 13 236 0.0 0.0 0.00 1.12 0.00 42 1015.3
20260507175000 13 190 0.0 0.0 0.00 1.14 0.00 39 1015.3
20260507173442 13 259 0.0 0.0 0.00 1.19 0.00 40 1015.4
20260507172937 13 252 0.0 0.0 0.00 1.19 0.00 41 1015.4
20260507172430 13 237 0.0 0.0 0.00 1.19 0.00 40 1015.4
20260507171924 13 177 0.0 8.0 0.00 1.19 0.00 42 1015.5
20260507171418 13 193 1.6 8.0 0.00 1.19 0.00 41 1015.6
20260507170406 12 187 0.0 4.8 0.00 1.19 0.00 41 1015.7
20260507165900 12 222 0.0 0.0 0.00 1.19 0.00 42 1015.7
20260507165354 12 240 0.0 0.0 0.00 1.19 0.00 40 1015.9
20260507164849 12 194 0.0 3.2 0.00 1.19 0.00 40 1016.0
20260507164342 13 169 0.0 3.2 0.00 1.19 0.00 40 1016.0
20260507163837 12 203 0.0 6.4 0.00 1.19 0.00 42 1016.0
20260507163330 12 184 0.0 6.4 0.00 1.19 0.00 42 1016.0
20260507162824 12 209 0.0 11.3 0.00 1.19 0.00 42 1016.1
20260507161812 12 182 0.0 3.2 0.00 1.19 0.00 42 1016.1
20260507161312 11 205 0.0 3.2 0.00 1.19 0.00 42 1016.2
20260507160315 11 258 0.0 0.0 0.00 1.19 0.00 43 1016.2
20260507155811 11 207 0.0 0.0 0.00 1.19 0.00 44 1016.2
20260507155311 11 190 0.0 0.0 0.00 1.19 0.00 45 1016.2
20260507154810 11 186 0.0 0.0 0.00 1.19 0.00 45 1016.3
20260507154307 10 209 0.0 1.6 0.00 1.19 0.00 45 1016.2
20260507153805 10 184 0.0 1.6 0.00 1.19 0.00 44 1016.2
20260507152803 10 175 0.0 0.0 0.00 1.19 0.00 45 1016.3
20260507152306 10 196 0.0 0.0 0.00 1.22 0.00 45 1016.2
20260507151801 10 186 0.0 0.0 0.00 1.22 0.00 46 1016.1
20260507151303 9 191 0.0 0.0 0.00 1.22 0.00 46 1016.2
20260507150759 9 191 0.0 0.0 0.00 1.22 0.00 46 1016.2
20260507145758 8 186 0.0 0.0 0.00 1.22 0.00 47 1016.2
20260507145258 8 202 0.0 0.0 0.00 1.22 0.00 45 1016.2
20260507144758 8 209 0.0 0.0 0.00 1.22 0.00 45 1016.2
20260507144252 8 184 0.0 1.6 0.00 1.22 0.00 45 1016.2
20260507143755 8 199 0.0 1.6 0.00 1.22 0.00 44 1016.3
20260507143252 8 206 0.0 0.0 0.00 1.22 0.00 44 1016.2
20260507142250 7 175 0.0 0.0 0.00 1.22 0.00 45 1016.2
20260507141750 7 191 0.0 0.0 0.00 1.22 0.00 46 1016.2
20260507140752 6 190 0.0 0.0 0.00 1.22 0.00 47 1016.2
20260507140251 6 190 0.0 0.0 0.00 1.22 0.00 47 1016.3
20260507135751 6 227 0.0 0.0 0.00 1.22 0.00 47 1016.3
20260507135252 6 208 0.0 0.0 0.00 1.22 0.00 48 1016.2
20260507134753 6 224 0.0 0.0 0.00 1.22 0.00 48 1016.2
20260507134247 5 219 0.0 0.0 0.00 1.22 0.00 48 1016.1
20260507133748 5 240 0.0 0.0 0.00 1.22 0.00 48 1016.0
20260507133248 5 241 0.0 0.0 0.00 1.22 0.00 48 1016.0
20260507132747 5 239 0.0 0.0 0.00 1.22 0.00 48 1016.0
20260507132246 5 227 0.0 0.0 0.00 1.22 0.00 48 1016.0
20260507131747 5 212 0.0 0.0 0.00 1.22 0.00 48 1016.1
20260507131248 5 206 0.0 0.0 0.00 1.22 0.00 49 1016.0
20260507130248 4 196 0.0 0.0 0.00 1.22 0.00 50 1015.9
20260507125744 4 196 0.0 0.0 0.00 1.22 0.00 50 1016.0
20260507125243 3 196 0.0 0.0 0.00 1.22 0.00 50 1016.0
20260507124743 3 198 0.0 0.0 0.00 1.22 0.00 51 1015.9
20260507124244 3 198 0.0 0.0 0.00 1.22 0.00 50 1015.7
20260507123743 3 200 0.0 0.0 0.00 1.22 0.00 50 1015.6
20260507123243 3 188 0.0 0.0 0.00 1.22 0.00 50 1015.5
20260507122743 3 184 0.0 0.0 0.00 1.22 0.00 51 1015.5
20260507122243 3 184 0.0 0.0 0.00 1.22 0.00 52 1015.4
20260507121744 3 182 0.0 0.0 0.00 1.22 0.00 52 1015.4
20260507121244 2 193 0.0 0.0 0.00 1.22 0.00 52 1015.4
20260507120742 2 194 0.0 0.0 0.00 1.22 0.00 52 1015.4
20260507120242 3 194 0.0 0.0 0.00 1.22 0.00 52 1015.4
20260507115744 3 194 0.0 0.0 0.00 1.22 0.00 50 1015.4
20260507115244 2 191 0.0 0.0 0.00 1.22 0.00 50 1015.5
20260507114243 2 194 0.0 0.0 0.00 1.22 0.00 51 1015.5
20260507112738 2 190 0.0 0.0 0.00 1.22 0.00 52 1015.6
20260507111222 2 215 0.0 0.0 0.00 1.22 0.00 55 1015.4
20260507110716 1 196 0.0 0.0 0.00 1.22 0.00 57 1015.4
20260507105704 2 196 0.0 0.0 0.00 1.22 0.00 57 1015.5
20260507105158 2 195 0.0 0.0 0.00 1.22 0.00 56 1015.5
20260507104652 2 198 0.0 0.0 0.00 1.22 0.00 55 1015.6
20260507103640 2 196 0.0 0.0 0.00 1.22 0.00 57 1015.5
20260507103134 2 194 0.0 0.0 0.00 1.22 0.00 57 1015.4
20260507102628 2 194 0.0 0.0 0.00 1.22 0.00 56 1015.5
20260507101617 2 192 0.0 0.0 0.00 1.22 0.00 55 1015.5
20260507101107 2 192 0.0 0.0 0.00 1.22 0.00 54 1015.6
20260507100601 2 192 0.0 3.2 0.00 1.22 0.00 53 1015.6
20260507100055 2 193 0.0 3.2 0.00 1.22 0.00 53 1015.6
20260507095549 2 184 0.0 0.0 0.00 1.22 0.00 54 1015.6
20260507095043 2 192 0.0 0.0 0.00 1.22 0.00 55 1015.6
20260507094537 2 192 0.0 0.0 0.00 1.22 0.00 57 1015.7
20260507094031 1 195 0.0 0.0 0.00 1.22 0.00 59 1015.9
20260507093022 1 194 0.0 0.0 0.00 1.22 0.00 60 1015.7
20260507092516 1 192 0.0 0.0 0.00 1.22 0.00 61 1015.9
20260507092010 1 191 0.0 0.0 0.00 1.22 0.00 60 1015.7
20260507091504 1 202 0.0 0.0 0.00 1.22 0.00 60 1015.9
20260507090958 1 200 0.0 0.0 0.00 1.22 0.00 61 1015.9
20260507090452 1 200 0.0 0.0 0.00 1.22 0.00 61 1015.9
20260507085946 1 196 0.0 0.0 0.00 1.22 0.00 60 1015.7
20260507085440 2 199 0.0 4.8 0.00 1.22 0.00 60 1015.7
20260507084933 2 198 0.0 4.8 0.00 1.22 0.00 60 1015.9
20260507084426 2 195 0.0 0.0 0.00 1.22 0.00 60 1015.9
20260507083920 2 195 0.0 0.0 0.00 1.22 0.00 59 1015.9
20260507083414 2 215 0.0 1.6 0.00 1.22 0.00 60 1016.0
20260507082908 2 205 0.0 1.6 0.00 1.22 0.00 61 1016.0
20260507082402 1 201 0.0 0.0 0.00 1.22 0.00 62 1016.0
20260507081856 1 192 0.0 0.0 0.00 1.22 0.00 63 1016.0
20260507081350 1 197 0.0 0.0 0.00 1.22 0.00 65 1016.0
20260507080844 1 194 0.0 0.0 0.00 1.22 0.00 66 1016.0
20260507080338 1 196 0.0 0.0 0.00 1.22 0.00 67 1016.0
20260507075832 1 200 0.0 0.0 0.00 1.22 0.00 68 1016.0
20260507074820 0 200 0.0 0.0 0.00 1.22 0.00 71 1016.2
20260507074313 0 200 0.0 0.0 0.00 1.22 0.00 73 1016.3
20260507073808 0 200 0.0 0.0 0.00 1.22 0.00 73 1016.6
20260507072756 0 199 0.0 0.0 0.00 1.22 0.00 73 1016.6
20260507071238 1 200 0.0 0.0 0.00 1.22 0.00 73 1016.6
20260507070732 1 200 0.0 0.0 0.00 1.22 0.00 74 1016.5
20260507070226 1 200 0.0 0.0 0.00 1.22 0.00 74 1016.3
20260507065720 1 200 0.0 0.0 0.00 1.22 0.00 74 1016.5
20260507065214 1 200 0.0 0.0 0.00 1.22 0.00 75 1016.5
20260507064708 0 202 0.0 0.0 0.00 1.22 0.00 78 1016.5
20260507064202 0 202 0.0 0.0 0.00 1.22 0.00 79 1016.6
20260507063656 0 202 0.0 0.0 0.00 1.22 0.00 81 1016.7
20260507063150 0 202 0.0 0.0 0.00 1.22 0.00 81 1016.7
20260507062137 0 202 0.0 0.0 0.00 1.22 0.00 82 1016.6
20260507061632 0 202 0.0 0.0 0.00 1.22 0.00 82 1016.5
20260507061126 0 202 0.0 0.0 0.00 1.22 0.00 83 1016.5
20260507060115 0 202 0.0 0.0 0.00 1.22 0.00 83 1016.6
20260507055608 0 202 0.0 0.0 0.00 1.22 1.22 83 1016.6
20260507055102 0 202 0.0 0.0 0.00 1.22 1.22 83 1016.7
20260507054556 0 202 0.0 0.0 0.00 1.22 1.22 82 1016.7
20260507053544 0 202 0.0 0.0 0.00 1.22 1.22 82 1016.6
20260507053038 0 202 0.0 0.0 0.00 1.22 1.22 82 1016.6
20260507052532 0 202 0.0 0.0 0.00 1.22 1.22 82 1016.6
20260507052025 0 202 0.0 0.0 0.00 1.22 1.22 82 1016.6
20260507051520 0 206 0.0 0.0 0.00 1.22 1.22 82 1016.6
20260507051014 0 207 0.0 0.0 0.00 1.22 1.22 82 1016.3
20260507050508 0 207 0.0 0.0 0.00 1.22 1.22 83 1016.3
20260507050002 0 207 0.0 0.0 0.00 1.22 1.22 83 1016.3
20260507045456 0 207 0.0 0.0 0.00 1.22 1.22 83 1016.5
20260507044950 0 203 0.0 0.0 0.00 1.22 1.22 83 1016.5
20260507044444 0 203 0.0 0.0 0.00 1.22 1.22 84 1016.6
20260507043938 0 201 0.0 0.0 0.00 1.22 1.22 84 1016.6
20260507043432 0 200 0.0 0.0 0.00 1.22 1.22 84 1016.5
20260507041914 0 196 0.0 0.0 0.00 1.22 1.22 85 1016.3
20260507041408 0 190 0.0 0.0 0.00 1.22 1.22 86 1016.3
20260507040902 0 190 0.0 0.0 0.00 1.22 1.22 86 1016.2
20260507040356 0 188 0.0 0.0 0.00 1.22 1.22 86 1016.2
20260507035850 0 171 0.0 0.0 0.00 1.22 1.22 87 1016.2
20260507035344 0 171 0.0 0.0 0.00 1.22 1.22 86 1016.2
20260507034838 0 142 0.0 0.0 0.00 1.22 1.22 86 1016.2
20260507034332 0 137 0.0 0.0 0.00 1.22 1.22 86 1016.2
20260507033827 0 137 0.0 0.0 0.00 1.22 1.22 86 1016.2
20260507033320 0 136 0.0 1.6 0.00 1.22 1.22 86 1016.1
20260507031802 0 134 0.0 0.0 0.00 1.22 1.22 86 1016.1
20260507031256 0 134 0.0 0.0 0.00 1.22 1.22 86 1016.1
20260507030750 0 134 0.0 0.0 0.00 1.22 1.22 87 1016.0
20260507030244 0 134 0.0 0.0 0.00 1.22 1.22 87 1016.0